Location: Newark
(46.9000°N, 28.3500°E)
Time: 19:47:32
(UTC+00:00)

Explorer 7 - Pass Details

Date: 28 August 2019
Orbit: 485 x 680 km, 50.3° (Epoch: 18 October)

Event Time Altitude Azimuth Distance (km) Brightness Sun altitude
Rises 06:38:22 0° 249° (WSW) 3,025 10.2 32.3°
Reaches altitude 10° 06:40:45 10° 250° (WSW) 2,103 9.5 32.7°
Maximum altitude 06:45:39 85° 340° (NNW) 667 7.8 33.5°
Drops below altitude 10° 06:50:22 10° 69° (ENE) 2,029 10.4 34.2°
Sets 06:52:38 0° 70° (ENE) 2,910 11.1 34.6°
